Montgomery, NY

6:42 AM EDT on April 29, 2017 (GMT -0400)
Orange County

Weather History for KMGJ - March, 2014

Change the Weather History Date:

Saturday, March 8, 2014

  Actual Average (KSWF) Record (KSWF)
Temperature  
Mean Temperature 35 °F -  
Max Temperature 51 °F 40 °F 69 °F (2012)
Min Temperature 19 °F 23 °F 4 °F (1989)
Degree Days  
Heating Degree Days 30    
Moisture  
Dew Point 23 °F    
Average Humidity 68    
Maximum Humidity 92    
Minimum Humidity 38    
Precipitation  
Precipitation 0.00 in - - ()
Sea Level Pressure  
Sea Level Pressure 29.85 in    
Wind  
Wind Speed 3 mph (West)    
Max Wind Speed 15 mph    
Max Gust Speed 20 mph    
Visibility 8 miles    
Events      
Averages and records for this station are not official NWS values.
T = Trace of Precipitation, MM = Missing Value Source: NWS Daily Summary

Daily Weather History Graph

Daily Weather History Graph

Search for Another Location

Airport or City:

Trip Planner

Search our weather history database for the weather conditions in past years. The results will help you decide how hot, cold, wet, or windy it might be!

Date:

Astronomy

Mar. 08, 2014 Rise Set
Actual Time 6:20 AM EST 5:55 PM EST
Civil Twilight 5:52 AM EST 6:23 PM EST
Nautical Twilight 5:20 AM EST 6:55 PM EST
Astronomical Twilight 4:48 AM EST 7:27 PM EST
Moon 10:54 AM EST (3/8) 12:56 AM EST (3/8)
Length of Visible Light 12h 30m
Length of Day
11h 35m
First Quarter, 51% of the Moon is Illuminated
Mar 8
First Quarter
Mar 16
Full
Mar 23
Last Quarter
Mar 30
New
Apr 7
First Quarter

Hourly Weather History & Observations

Time (EST) Temp. Windchill Dew Point Humidity Pressure Visibility Wind Dir Wind Speed Gust Speed Precip Events Conditions
12:54 AM 30.9 °F - 26.1 °F 82% 29.91 in 10.0 mi Calm Calm - N/A   Overcast
1:54 AM 30.9 °F 27.5 °F 25.0 °F 79% 29.90 in 10.0 mi South 3.5 mph - N/A   Overcast
2:50 AM 28.4 °F - 21.2 °F 74% 29.86 in 10.0 mi Calm Calm - N/A   Overcast
2:54 AM 28.9 °F - 21.9 °F 75% 29.87 in 10.0 mi Calm Calm - N/A   Overcast
3:33 AM 30.0 °F - 25.0 °F 82% 29.85 in 10.0 mi Calm Calm - N/A   Mostly Cloudy
3:54 AM 28.0 °F 24.2 °F 23.0 °F 81% 29.86 in 10.0 mi SSW 3.5 mph - N/A   Partly Cloudy
4:54 AM 24.1 °F - 21.0 °F 88% 29.86 in 9.0 mi Calm Calm - N/A   Clear
5:54 AM 21.0 °F - 18.0 °F 88% 29.86 in 9.0 mi Calm Calm - N/A   Clear
6:01 AM 21.0 °F - 19.0 °F 92% 29.84 in 2.0 mi Calm Calm - N/A   Partly Cloudy
6:08 AM 19.9 °F - 18.0 °F 92% 29.84 in 1.8 mi Calm Calm - N/A   Scattered Clouds
6:10 AM 19.9 °F - 18.0 °F 92% 29.84 in 2.0 mi Calm Calm - N/A   Mostly Cloudy
6:17 AM 21.0 °F - 17.1 °F 85% 29.84 in 4.0 mi Calm Calm - N/A   Mostly Cloudy
6:34 AM 19.9 °F - 17.1 °F 89% 29.84 in 1.8 mi Calm Calm - N/A   Mostly Cloudy
6:43 AM 19.9 °F - 17.1 °F 89% 29.84 in 3.0 mi Calm Calm - N/A   Mostly Cloudy
6:54 AM 19.9 °F - 17.1 °F 89% 29.86 in 9.0 mi Calm Calm - N/A   Scattered Clouds
7:54 AM 24.1 °F - 19.9 °F 84% 29.86 in 9.0 mi Calm Calm - N/A   Partly Cloudy
8:54 AM 32.0 °F 28.7 °F 24.1 °F 73% 29.86 in 10.0 mi South 3.5 mph - N/A   Clear
9:54 AM 39.0 °F 32.8 °F 26.1 °F 60% 29.84 in 10.0 mi SSW 9.2 mph - N/A   Mostly Cloudy
10:54 AM 42.1 °F 35.7 °F 26.1 °F 53% 29.83 in 10.0 mi SW 11.5 mph - N/A   Partly Cloudy
11:54 AM 44.1 °F 39.0 °F 28.0 °F 53% 29.80 in 10.0 mi South 9.2 mph - N/A   Scattered Clouds
12:54 PM 48.0 °F - 27.0 °F 44% 29.78 in 10.0 mi West 8.1 mph - N/A   Mostly Cloudy
1:54 PM 50.0 °F - 26.1 °F 39% 29.78 in 10.0 mi WNW 15.0 mph - N/A   Clear
2:54 PM 51.1 °F - 26.1 °F 38% 29.78 in 10.0 mi WNW 9.2 mph - N/A   Clear
3:54 PM 50.0 °F - 26.1 °F 39% 29.78 in 10.0 mi WNW 8.1 mph - N/A   Clear
4:54 PM 48.0 °F - 26.1 °F 42% 29.80 in 10.0 mi West 11.5 mph 19.6 mph N/A   Overcast
5:54 PM 46.0 °F 40.6 °F 25.0 °F 44% 29.83 in 10.0 mi WNW 11.5 mph 19.6 mph N/A   Overcast
6:54 PM 45.0 °F 40.6 °F 25.0 °F 46% 29.86 in 10.0 mi WNW 8.1 mph - N/A   Overcast
7:54 PM 43.0 °F 39.5 °F 25.0 °F 49% 29.88 in 10.0 mi NW 5.8 mph - N/A   Overcast
8:54 PM 41.0 °F 38.0 °F 26.1 °F 55% 29.89 in 10.0 mi NW 4.6 mph - N/A   Overcast
9:54 PM 41.0 °F 36.4 °F 26.1 °F 55% 29.90 in 9.0 mi West 6.9 mph - N/A   Overcast
10:54 PM 39.9 °F 33.9 °F 26.1 °F 58% 29.90 in 10.0 mi WNW 9.2 mph - 0.00 in   Overcast
11:54 PM 39.0 °F 32.3 °F 25.0 °F 57% 29.90 in 10.0 mi WNW 10.4 mph - N/A   Overcast